COSMOS 1867

Last updated on Thu Nov 21 2024 00:02:12 GMT+0000 (Coordinated Universal Time)

1 18187U 87060A 24325.06442848 .00000050 00000+0 56417-4 0 9999 2 18187 65.0098 195.7771 0020034 262.5801 97.3007 14.31382634951999
UTC large
Height (km)
Speed (km/s)
/
Latitude / Longitude
Inclination (degrees)
Orbital Period (minutes)
Azimuth
Elevation
Range (km)
Doppler Factor

Next 0 passes for location: London (51.5072 / 0.1276)

Sorry there are no passes over London.